This is the latest recevied weather packets stored in our database for station/object DL4ABR-6. If no packets are shown the sender has not sent any weather packets the latest 10 day(s).
| Time | Temp. | Humidity | Pressure | Rain* | Wind** | Luminosity | Snow |
|---|---|---|---|---|---|---|---|
| 1778087590 | 10.56° C | 99% | 1003 hPa | 24.89 mm | - | - | - |
| 1778086770 | 10.56° C | 99% | 1002.9 hPa | 24.64 mm | - | - | - |
| 1778085995 | 10.56° C | 99% | 1002.6 hPa | 24.38 mm | - | - | - |
| 1778085185 | 10.56° C | 99% | 1002.8 hPa | 23.88 mm | - | - | - |
| 1778084350 | 10.56° C | 99% | 1002.7 hPa | 23.62 mm | - | - | - |
| 1778083535 | 10.56° C | 99% | 1002.9 hPa | 22.61 mm | - | - | - |
| 1778082765 | 10.56° C | 99% | 1002.7 hPa | 22.35 mm | - | - | - |
| 1778081995 | 10.56° C | 99% | 1002.9 hPa | 22.1 mm | - | - | - |
| 1778081165 | 10.56° C | 99% | 1002.8 hPa | 22.1 mm | - | - | - |
| 1778080370 | 10.56° C | 99% | 1002.8 hPa | 22.1 mm | - | - | - |
| 1778079580 | 10.56° C | 99% | 1003 hPa | 21.84 mm | - | - | - |
| 1778078750 | 10.56° C | 99% | 1002.8 hPa | 21.84 mm | - | - | - |
| 1778077855 | 10.56° C | 99% | 1002.9 hPa | 21.84 mm | - | - | - |
| 1778077080 | 10.56° C | 99% | 1003 hPa | 21.84 mm | - | - | - |
| 1778076295 | 10.56° C | 99% | 1003 hPa | 21.84 mm | - | - | - |
| 1778075395 | 10.56° C | 99% | 1003 hPa | 21.84 mm | - | - | - |
| 1778074505 | 10.56° C | 99% | 1003.2 hPa | 21.59 mm | - | - | - |
| 1778073730 | 10.56° C | 99% | 1003.3 hPa | 21.59 mm | - | - | - |
| 1778072990 | 10.56° C | 99% | 1003.1 hPa | 21.59 mm | - | - | - |
| 1778072265 | 10.56° C | 99% | 1003 hPa | 21.34 mm | - | - | - |
| 1778071535 | 10° C | 99% | 1003.1 hPa | 21.34 mm | - | - | - |
| 1778070800 | 10° C | 99% | 1002.9 hPa | 21.08 mm | - | - | - |
| 1778070075 | 10° C | 99% | 1003 hPa | 21.08 mm | - | - | - |
| 1778069180 | 10° C | 99% | 1003 hPa | 21.08 mm | - | - | - |
| 1778068362 | 10° C | 99% | 1002.9 hPa | 20.83 mm | - | - | - |
* Rain since midnight (hover to see other rain measurements)
** Current wind speed in m/s (hover to see current wind gust speed)